DW1009 Weather Reports


Display with metric or nautical units.
time (UTC)temp
F
wind
direction
speed
MPH
gust
MPH
rain 1hr
in
rain 24hr
in
rain mn
in
humidity
%
barometer
mb
20260901014135 73 31 1.0 8.0 0.00 0.00 0.00 81 1010.2
20260901012135 74 275 4.0 8.0 0.00 0.00 0.00 80 1010.3
20260901010135 76 240 4.0 5.0 0.00 0.00 0.00 78 1010.4
20260901003136 76 24 1.0 8.0 0.00 0.00 0.00 78 1010.5
20260901002136 77 263 2.0 8.0 0.00 0.00 0.00 77 1010.4
20260901001135 77 293 3.0 9.0 0.00 0.00 0.00 77 1010.6
20260901000135 77 201 5.0 9.0 0.00 0.00 0.00 76 1010.6
20260831234136 77 265 7.0 9.0 0.00 0.00 0.00 77 1010.6
20260831233136 78 205 4.0 11.0 0.00 0.00 0.00 75 1010.7
20260831231135 79 286 4.0 10.0 0.00 0.00 0.00 74 1010.6
20260831230135 78 218 4.0 9.0 0.00 0.00 0.00 75 1010.5
20260831225136 78 233 3.0 8.0 0.00 0.00 0.00 75 1010.7
20260831223135 78 298 1.0 8.0 0.00 0.00 0.00 76 1010.9
20260831222135 78 255 8.0 11.0 0.00 0.00 0.00 75 1010.9
20260831221135 78 288 5.0 9.0 0.00 0.00 0.00 73 1011.1
20260831215136 78 250 2.0 10.0 0.00 0.00 0.00 75 1011.3
20260831214135 78 246 2.0 9.0 0.00 0.00 0.00 74 1011.2
20260831213135 78 240 8.0 8.0 0.00 0.00 0.00 73 1011.3
20260831212135 78 238 4.0 8.0 0.00 0.00 0.00 74 1011.4
20260831211135 78 254 3.0 11.0 0.00 0.00 0.00 73 1011.5
20260831210135 78 313 3.0 10.0 0.00 0.00 0.00 73 1011.7
20260831205135 79 268 3.0 8.0 0.00 0.00 0.00 73 1011.6
20260831204135 78 209 6.0 10.0 0.00 0.00 0.00 73 1011.6
20260831202135 78 235 2.0 9.0 0.00 0.00 0.00 74 1011.7
20260831201135 78 284 3.0 11.0 0.00 0.00 0.00 74 1011.8
20260831200135 78 241 3.0 9.0 0.00 0.00 0.00 74 1011.8
20260831195135 78 227 3.0 9.0 0.00 0.00 0.00 73 1011.8
20260831194135 78 223 4.0 8.0 0.00 0.00 0.00 73 1011.9
20260831193135 78 296 4.0 7.0 0.00 0.00 0.00 74 1012.1
20260831192135 78 286 3.0 8.0 0.00 0.00 0.00 75 1012.1
20260831191135 77 219 4.0 9.0 0.00 0.00 0.00 74 1012.1
20260831190135 77 270 3.0 6.0 0.00 0.00 0.00 75 1012.1
20260831185135 77 241 5.0 10.0 0.00 0.00 0.00 75 1012.2
20260831184135 77 246 3.0 8.0 0.00 0.00 0.00 76 1012.1
20260831183135 77 269 6.0 9.0 0.00 0.00 0.00 76 1012.0
20260831182135 77 169 2.0 6.0 0.00 0.00 0.00 76 1011.9
20260831181135 77 207 1.0 6.0 0.00 0.00 0.00 76 1011.9
20260831180135 76 213 3.0 5.0 0.00 0.00 0.00 78 1011.9
20260831175135 77 265 3.0 7.0 0.00 0.00 0.00 77 1011.6
20260831174135 76 228 3.0 6.0 0.00 0.00 0.00 77 1011.8
20260831172135 75 219 5.0 7.0 0.00 0.00 0.00 80 1011.8
20260831171135 75 276 6.0 7.0 0.00 0.00 0.00 80 1011.8
20260831170135 75 199 4.0 8.0 0.00 0.00 0.00 81 1011.6
20260831165136 74 196 4.0 8.0 0.00 0.00 0.00 83 1011.5
20260831164135 74 189 5.0 8.0 0.00 0.00 0.00 83 1011.4
20260831163134 75 228 6.0 7.0 0.00 0.00 0.00 82 1011.3
20260831162135 74 173 3.0 5.0 0.00 0.00 0.00 82 1011.2
20260831160135 73 176 0.0 6.0 0.00 0.00 0.00 84 1011.2
20260831154135 72 227 4.0 4.0 0.00 0.00 0.00 87 1011.1
20260831153134 72 207 1.0 3.0 0.00 0.00 0.00 87 1011.1
20260831151135 71 207 0.0 2.0 0.00 0.00 0.00 89 1011.0
20260831150134 70 200 1.0 3.0 0.00 0.00 0.00 91 1010.9
20260831145134 69 215 0.0 2.0 0.00 0.00 0.00 93 1010.9
20260831144134 69 234 0.0 0.0 0.00 0.00 0.00 94 1010.8
20260831143135 68 234 0.0 0.0 0.00 0.00 0.00 94 1010.7
20260831142135 67 234 0.0 0.0 0.00 0.00 0.00 94 1010.6
20260831141134 66 234 0.0 1.0 0.00 0.00 0.00 94 1010.2
20260831140134 66 234 0.0 2.0 0.00 0.00 0.00 93 1010.2
20260831135134 66 234 0.0 0.0 0.00 0.00 0.00 93 1010.1
20260831133134 66 234 0.0 0.0 0.00 0.00 0.00 92 1010.0
20260831132134 67 234 0.0 2.0 0.00 0.00 0.00 92 1010.0
20260831130134 67 234 0.0 2.0 0.00 0.00 0.00 92 1009.9
20260831125134 68 234 0.0 2.0 0.00 0.00 0.00 91 1009.9
20260831124134 68 234 0.0 0.0 0.00 0.00 0.00 90 1009.9
20260831123135 68 234 0.0 0.0 0.00 0.00 0.00 90 1009.8
20260831122134 69 234 0.0 2.0 0.00 0.00 0.00 90 1009.9
20260831121134 69 234 0.0 2.0 0.00 0.00 0.00 90 1009.8
20260831120135 69 234 0.0 2.0 0.00 0.00 0.00 90 1009.8
20260831115134 69 234 0.0 0.0 0.00 0.00 0.00 89 1009.9
20260831114135 69 234 0.0 2.0 0.00 0.00 0.00 89 1009.9
20260831113135 69 174 0.0 2.0 0.00 0.00 0.00 89 1009.9
20260831112134 69 193 1.0 2.0 0.00 0.00 0.00 89 1009.9
20260831111135 69 252 1.0 2.0 0.00 0.00 0.00 89 1009.9
20260831105134 70 213 1.0 2.0 0.00 0.00 0.00 89 1009.9
20260831104134 70 224 0.0 3.0 0.00 0.00 0.00 89 1010.0
20260831103134 70 215 1.0 4.0 0.00 0.00 0.00 89 1010.0
20260831102135 70 203 3.0 3.0 0.00 0.00 0.00 89 1010.0
20260831101134 70 178 1.0 5.0 0.00 0.00 0.00 89 1009.9
20260831100135 70 254 1.0 4.0 0.00 0.00 0.00 89 1009.9
20260831094134 71 249 1.0 4.0 0.00 0.00 0.00 88 1010.0
20260831093134 71 254 1.0 5.0 0.00 0.00 0.00 88 1010.0
20260831090134 70 225 1.0 2.0 0.00 0.00 0.00 87 1010.1
20260831085134 71 240 0.0 3.0 0.00 0.00 0.00 87 1010.0
20260831084134 71 240 2.0 2.0 0.00 0.00 0.00 87 1010.0
20260831083134 71 180 0.0 3.0 0.00 0.00 0.00 87 1009.9
20260831081135 71 239 1.0 3.0 0.00 0.00 0.00 86 1010.0
20260831080134 71 230 3.0 7.0 0.00 0.00 0.00 86 1010.0
20260831075134 71 241 3.0 5.0 0.00 0.00 0.00 85 1010.1
20260831074134 71 228 1.0 7.0 0.00 0.00 0.00 82 1010.0
20260831073134 71 205 3.0 5.0 0.00 0.00 0.00 82 1010.0
20260831072134 72 229 1.0 4.0 0.00 0.00 0.00 81 1009.7
20260831070135 72 234 1.0 8.0 0.00 0.00 0.00 76 1009.7
20260831065134 72 197 3.0 5.0 0.00 0.00 0.00 77 1009.8
20260831061135 72 197 2.0 4.0 0.00 0.00 0.00 87 1009.7
20260831060134 72 236 2.0 5.0 0.00 0.00 0.00 89 1009.5
20260831055133 72 208 2.0 5.0 0.00 0.00 0.00 90 1009.7
20260831053133 72 190 1.0 4.0 0.00 0.00 0.00 89 1009.6
20260831052134 72 223 0.0 5.0 0.00 0.00 0.00 89 1009.6
20260831051133 72 265 0.0 2.0 0.00 0.00 0.00 89 1009.6
20260831050134 72 196 0.0 3.0 0.00 0.00 0.00 89 1009.6
20260831045134 72 306 1.0 4.0 0.00 0.00 0.00 89 1009.6
20260831044134 72 15 2.0 3.0 0.00 0.00 0.00 89 1009.6
20260831043134 72 241 1.0 4.0 0.00 0.00 0.00 89 1009.7
20260831042133 72 327 1.0 4.0 0.00 0.00 0.00 89 1009.6
20260831040133 73 355 1.0 6.0 0.00 0.00 0.00 88 1009.2
20260831035134 73 330 2.0 6.0 0.00 0.00 0.00 88 1008.9
20260831034134 73 288 1.0 4.0 0.00 0.00 0.00 87 1008.8
20260831033133 73 348 1.0 6.0 0.00 0.00 0.00 86 1008.7
20260831032134 73 268 4.0 4.0 0.00 0.00 0.00 85 1008.5
20260831025134 74 292 1.0 5.0 0.00 0.00 0.00 82 1008.4
20260831023134 74 329 5.0 6.0 0.00 0.00 0.00 76 1008.5
20260831022134 74 298 1.0 6.0 0.00 0.00 0.00 76 1008.6
20260831021134 74 240 1.0 6.0 0.00 0.00 0.00 78 1008.7
20260831020133 74 315 3.0 9.0 0.00 0.00 0.00 78 1008.4
20260831015134 75 286 3.0 7.0 0.00 0.00 0.00 76 1008.4